Theta_e
311 311 311 310 310 310 310 309 309 307 307 304 301 303 296 296 292 302 307 310 307 300 295 299 299 294 296 302 300 301 300 300 301 297 299 297 298 298 297 297 296 298 297 298 297 298 296 298 297 300 301 302 305 307 305 307 306 307 306 306 306 312 302 299 300 305 306 307 306 306 305 305 303 305 307 306 304 305 304 304 309 302 304 301 301 299 304
311 311 310 310 310 310 310 309 309 308 307 305 303 298 295 296 296 299 308 310 306 299 292 294 296 297 299 298 297 302 302 301 301 298 299 299 298 298 298 298 300 298 300 299 297 300 294 300 298 298 303 302 308 307 307 307 306 306 305 305 310 301 308 302 297 297 299 301 304 303 305 304 302 302 305 306 307 307 308 310 311 303 305 303 301 295 302
310 310 310 310 310 310 309 309 309 309 309 308 304 295 297 297 300 299 303 310 306 297 298 295 295 296 296 297 297 298 300 302 302 301 302 304 303 301 301 301 302 299 300 299 300 301 298 296 303 302 303 303 307 307 306 307 308 308 310 319 310 305 304 301 294 292 290 290 291 294 298 300 303 305 304 305 305 305 305 301 305 297 308 306 301 300 310
310 310 310 310 310 310 309 309 309 309 308 308 304 298 296 295 289 296 301 305 303 303 302 299 296 295 296 296 298 299 297 301 303 304 303 305 305 305 304 304 304 302 302 300 300 300 302 299 300 304 302 305 308 310 311 310 312 318 320 319 310 307 310 304 302 299 296 299 304 309 307 304 300 302 303 303 304 306 307 309 304 299 304 304 305 308 309
310 310 310 309 310 309 309 309 309 309 308 308 304 300 298 298 291 296 293 301 300 298 300 298 298 294 298 293 298 296 298 299 300 305 299 304 304 303 303 303 301 302 301 300 300 302 301 303 301 300 301 303 306 310 311 311 316 325 324 327 312 312 303 304 306 306 305 305 305 307 305 302 303 302 302 304 304 304 304 303 300 311 303 297 307 314 308
310 310 310 309 309 309 308 308 309 308 308 307 305 296 300 291 296 299 301 293 290 294 296 298 295 298 299 295 299 296 297 298 296 302 303 302 303 301 302 302 303 303 302 300 298 300 301 302 300 303 303 303 305 304 308 308 316 318 313 322 310 305 300 303 304 304 305 305 305 306 305 304 304 304 304 303 304 304 302 305 306 312 302 299 309 314 313
311 309 309 310 309 308 308 308 308 308 307 307 303 294 297 299 298 298 301 293 296 296 296 297 297 297 297 295 296 295 296 297 299 298 299 301 300 302 298 300 302 303 304 302 300 302 297 298 303 303 303 303 303 302 305 310 312 312 312 313 316 307 302 305 303 302 303 304 304 305 304 304 304 304 304 305 304 304 304 305 307 308 308 308 311 316 312
310 309 309 308 309 309 309 308 308 308 306 305 298 298 293 292 293 291 297 296 294 295 296 297 296 293 296 293 296 297 296 297 297 299 297 297 299 302 299 301 301 301 301 302 300 303 304 303 301 307 304 303 308 304 306 306 312 313 309 310 315 305 303 308 303 302 301 303 304 304 303 303 302 304 304 305 305 305 305 305 306 309 307 308 309 316 315
309 309 310 309 308 309 309 308 308 307 306 300 297 295 298 296 297 297 292 290 292 296 296 294 293 291 293 292 295 295 296 295 296 296 300 298 298 300 299 299 299 300 300 302 302 305 304 302 303 305 305 303 309 306 308 310 311 311 309 311 311 309 307 304 305 300 300 303 302 302 303 302 302 302 303 304 303 302 304 304 308 307 308 311 309 309 310
310 309 310 309 308 308 308 308 307 306 306 301 299 293 300 298 300 300 297 289 295 292 294 294 293 289 294 295 295 292 293 295 296 295 300 301 302 301 299 299 297 298 300 301 304 303 302 302 303 304 307 308 308 309 309 311 310 312 313 312 308 311 307 304 303 300 300 304 303 302 302 301 298 299 302 305 304 305 306 306 309 308 309 307 306 306 314
309 309 308 310 309 308 308 308 308 307 305 301 298 296 298 295 293 295 296 288 291 293 292 291 290 292 294 295 293 295 294 295 296 292 296 299 300 302 300 299 297 297 298 303 306 305 303 303 304 306 306 307 307 308 310 311 312 313 313 309 310 310 307 305 307 299 301 304 302 302 298 292 294 306 308 307 305 305 304 303 305 309 311 310 313 314 317
308 309 309 309 308 307 308 308 308 306 305 306 304 300 300 301 297 296 291 286 288 292 291 289 291 292 292 294 294 293 293 293 294 297 294 296 298 300 300 299 299 296 306 307 305 305 305 308 306 306 306 306 307 308 309 310 312 317 313 310 308 308 309 306 308 301 300 302 301 297 292 295 308 313 314 309 308 308 306 307 308 309 311 314 314 316 321
309 309 309 309 309 308 308 307 307 308 306 306 305 299 302 302 298 294 292 289 285 288 287 289 293 294 294 294 294 294 296 297 297 297 297 296 297 298 299 298 298 302 306 303 303 303 304 306 308 307 305 306 307 309 311 311 312 312 313 316 313 307 307 308 304 304 303 300 300 292 295 307 312 311 314 312 309 309 308 306 311 314 311 314 313 316 318
308 308 308 308 308 309 308 307 307 307 307 306 303 303 303 302 296 294 292 288 287 291 292 291 292 292 292 293 295 295 296 295 296 298 295 298 296 296 299 302 303 305 303 303 302 303 306 307 303 305 305 307 308 306 308 311 313 311 310 311 311 309 310 307 302 307 298 300 299 298 308 305 308 307 309 310 308 306 305 301 306 314 316 315 314 316 318
309 308 308 307 307 308 308 307 308 307 307 306 305 304 303 302 300 297 296 293 287 289 291 286 291 293 293 293 294 293 293 294 294 295 298 299 297 299 300 302 304 302 303 301 305 308 305 306 301 300 303 301 297 300 308 304 311 313 312 311 311 315 307 311 302 301 303 299 297 298 298 295 304 312 315 316 314 316 317 313 310 318 318 318 318 318 320
309 308 308 308 307 307 307 307 307 306 306 305 305 303 304 304 303 301 297 293 291 284 289 294 295 294 293 294 295 293 291 292 293 294 295 297 297 299 302 303 303 303 304 303 307 306 305 301 298 299 298 300 304 302 301 306 304 309 312 312 310 312 314 314 306 302 303 301 297 296 295 300 313 312 313 315 315 315 317 309 304 318 318 318 318 318 320
308 308 308 308 308 307 308 307 307 307 306 305 304 303 302 306 302 299 296 295 293 286 294 294 295 295 292 291 293 292 295 293 294 290 290 292 295 297 299 301 303 306 308 310 311 306 302 302 303 302 304 306 301 301 306 302 302 303 309 310 310 309 308 307 304 303 303 302 298 297 302 302 311 312 313 314 316 315 312 300 302 317 317 319 318 317 319
307 307 307 307 307 307 308 308 307 307 306 307 304 302 301 306 305 302 298 294 290 289 294 296 294 291 291 294 293 296 298 297 296 296 293 294 296 296 295 298 298 305 310 309 308 305 301 301 298 299 299 306 307 306 299 304 300 302 304 307 305 307 308 307 301 302 303 301 301 303 306 314 312 312 313 314 315 312 304 297 310 317 318 318 319 317 319
307 307 307 308 308 307 307 307 308 307 307 306 305 303 302 305 305 303 298 294 292 287 295 299 299 295 296 298 297 298 298 297 296 291 291 291 294 297 297 299 301 298 304 304 306 304 302 302 303 301 299 303 305 301 308 302 302 308 305 301 301 303 307 309 305 303 302 304 299 300 306 311 311 314 313 316 310 302 303 316 315 318 317 317 317 317 319
307 308 307 308 307 307 307 307 307 307 307 306 305 301 303 305 306 304 298 293 294 291 294 295 296 294 298 296 294 293 295 295 295 292 291 288 298 297 295 297 305 298 301 305 301 304 301 298 301 302 301 302 306 307 304 305 312 306 304 306 299 300 300 301 303 306 304 304 301 297 293 311 313 311 314 316 309 312 315 317 318 319 319 319 320 320 321
307 307 307 307 307 307 307 307 307 306 307 307 305 302 300 305 306 306 305 300 294 290 292 299 299 298 299 298 299 299 297 294 295 293 295 295 299 294 287 292 294 293 295 300 298 301 302 299 301 300 304 303 306 306 302 306 306 311 309 309 305 309 299 305 306 310 304 302 299 297 308 311 314 311 307 314 316 318 321 319 317 320 320 320 320 322 323
307 307 307 307 307 307 307 307 307 306 306 306 305 304 299 303 305 305 304 304 296 292 294 299 301 300 300 301 302 302 300 299 300 301 297 295 298 295 295 295 295 295 298 307 301 303 304 303 305 301 301 304 307 303 305 302 301 307 313 311 301 313 306 309 302 312 308 307 312 315 316 315 314 313 313 314 316 317 319 320 319 318 319 323 321 322 323
307 307 307 307 306 306 307 307 306 306 306 307 304 302 299 302 303 306 304 297 299 300 301 300 301 301 302 303 304 303 303 304 302 301 300 295 293 295 295 294 295 300 300 305 303 302 303 302 301 304 303 304 303 302 304 305 304 305 305 310 310 312 313 315 313 309 313 313 314 317 316 313 313 314 315 315 316 317 318 317 316 317 319 321 321 322 324
306 306 307 306 307 306 306 306 307 306 306 306 305 303 301 302 303 303 301 299 295 291 295 298 295 293 295 295 300 304 305 304 304 303 304 302 292 293 299 299 301 299 303 304 306 304 301 301 304 307 299 304 306 302 301 301 302 306 307 305 306 310 309 309 311 312 307 301 316 312 311 312 312 313 315 316 316 317 319 319 319 319 319 320 321 322 323
306 306 306 306 306 306 306 306 306 306 306 306 306 306 305 303 304 303 298 292 292 291 286 290 293 297 300 302 303 302 303 305 307 307 305 303 300 296 296 302 303 299 300 303 308 301 303 300 303 303 297 307 306 298 303 301 302 308 304 303 304 307 311 307 309 309 310 310 312 312 315 313 314 313 313 313 314 315 317 318 319 320 320 320 322 323 323
306 306 306 306 306 306 306 306 306 306 306 305 305 303 301 301 305 305 302 300 298 294 287 286 291 301 302 300 298 301 305 305 305 305 305 305 304 303 302 303 303 306 304 303 304 301 298 299 302 303 300 303 311 303 300 303 304 309 305 304 306 307 310 305 308 308 308 312 313 315 317 315 312 314 313 314 314 315 315 317 316 316 316 316 318 320 322
306 306 306 306 306 306 306 306 305 305 306 305 305 305 304 304 305 302 299 298 292 288 290 287 292 296 299 296 300 302 303 303 303 303 303 305 305 305 303 302 301 302 301 300 303 300 300 299 299 300 303 306 312 306 308 307 308 306 304 304 309 309 306 307 307 305 305 306 308 313 306 308 310 310 313 314 315 314 313 313 313 314 314 313 313 314 315
305 306 305 305 306 305 305 306 305 305 305 305 306 306 306 303 304 305 305 302 295 288 288 288 289 293 299 296 301 304 305 305 304 303 302 303 304 304 303 302 302 300 300 299 298 299 299 296 297 305 307 311 306 306 311 313 310 304 302 304 309 306 306 306 306 305 303 308 312 312 314 312 314 315 316 315 315 314 313 312 312 313 314 314 313 312 313
306 305 306 305 306 305 305 305 305 305 305 305 306 304 303 305 306 306 305 306 303 295 292 292 294 294 289 295 302 302 304 304 303 303 303 303 303 303 303 303 301 301 301 300 298 298 296 296 299 297 299 312 307 306 306 302 301 297 302 307 309 311 311 309 309 307 305 308 309 312 314 310 313 314 315 316 319 315 312 313 314 314 314 314 313 314 313
305 305 305 305 305 305 305 305 305 305 306 305 303 299 295 299 303 303 305 304 303 299 291 288 286 291 300 299 299 302 302 304 303 303 302 302 302 303 303 303 302 303 301 299 299 294 299 299 301 303 306 313 304 308 303 304 301 300 307 310 311 314 313 313 310 307 304 309 310 311 310 309 311 312 313 318 319 314 315 316 314 313 315 316 315 315 315
305 305 305 305 305 305 305 304 304 305 305 303 299 292 290 289 297 305 305 305 304 298 294 293 289 295 295 301 301 300 302 304 304 303 302 302 303 304 306 305 304 304 299 299 298 298 301 298 299 302 306 306 309 306 303 301 299 300 306 308 309 311 312 313 316 317 315 311 312 313 313 313 312 310 309 311 311 313 313 315 317 317 315 313 315 317 314
305 305 305 305 305 306 306 306 305 305 305 301 297 294 296 297 302 305 305 305 304 297 293 288 289 291 292 296 300 303 303 304 305 307 305 304 301 304 304 304 301 304 302 299 300 302 300 304 300 302 304 305 307 303 302 301 299 300 307 308 310 311 313 313 314 316 316 317 313 310 310 311 312 311 308 311 311 312 312 312 313 314 315 314 313 313 312
306 306 305 306 306 306 305 305 305 305 304 304 305 305 305 305 305 305 305 305 301 296 296 291 288 290 289 294 299 302 303 304 303 304 301 305 300 301 299 302 303 302 306 302 298 298 303 302 305 302 306 312 306 302 301 299 301 305 308 309 310 311 311 312 314 315 316 316 315 310 308 308 311 313 315 315 315 314 314 313 313 315 313 312 310 311 312
306 306 306 306 306 305 305 305 305 305 305 302 298 299 304 305 305 305 306 303 298 298 297 291 287 288 288 298 294 301 305 300 301 303 299 305 306 300 300 299 303 298 303 299 302 303 303 305 303 304 307 304 307 303 298 301 304 305 307 308 310 311 311 310 310 311 313 314 314 312 313 313 314 315 314 314 316 316 317 317 315 313 312 312 311 311 311
306 306 306 306 306 306 306 305 303 302 298 298 298 302 304 305 305 306 304 300 292 292 292 293 293 287 288 291 292 299 306 302 298 302 299 303 310 300 301 298 299 296 299 305 301 303 303 305 306 304 299 305 302 298 299 302 304 305 306 306 307 310 311 308 308 310 311 313 312 311 311 311 311 310 310 312 312 315 315 316 315 313 311 312 311 312 313
306 306 306 306 306 306 305 304 302 299 297 297 299 305 307 308 308 308 306 304 300 293 291 292 292 289 289 286 289 298 304 301 302 302 300 304 301 306 302 300 294 297 305 300 301 305 304 308 306 298 304 299 296 300 302 305 305 305 306 306 307 309 310 309 308 309 310 310 310 309 309 310 309 309 310 311 311 312 314 315 316 315 313 312 312 312 313
306 306 306 306 305 303 298 298 303 300 300 303 305 308 310 309 307 307 304 302 304 304 295 292 290 290 291 291 294 298 300 296 303 300 300 299 299 302 301 300 295 301 305 303 304 303 305 312 304 299 299 297 299 306 307 307 307 306 306 307 308 309 309 309 310 310 308 307 307 307 308 307 307 309 310 310 310 310 311 311 312 312 311 311 311 311 313
305 305 304 301 300 296 296 299 301 305 308 307 308 305 303 304 297 298 299 296 300 300 296 294 289 290 295 292 289 299 298 298 304 297 299 303 299 298 303 300 300 304 296 300 302 309 307 305 301 298 298 304 307 308 309 310 309 310 310 309 309 309 310 309 308 307 305 304 304 304 305 306 307 308 309 308 309 309 310 312 313 314 314 314 314 314 314
302 303 302 301 296 294 296 300 307 307 306 307 305 299 297 300 296 292 293 296 298 293 296 292 289 290 293 292 294 301 297 295 297 303 296 303 300 295 300 296 301 304 295 298 301 310 299 299 300 299 297 302 304 306 310 311 310 311 311 311 311 311 311 310 310 308 307 307 307 307 308 308 307 307 309 310 310 310 311 312 313 313 314 315 315 315 314
301 297 295 295 295 298 304 306 306 304 304 298 299 296 291 297 291 288 297 290 290 294 295 290 296 295 294 292 291 293 302 299 297 299 299 301 305 297 301 302 302 302 293 295 298 308 299 295 298 298 296 301 302 307 309 309 310 311 311 312 312 312 312 311 310 310 310 310 310 309 310 310 311 310 310 310 310 310 311 313 314 315 315 315 317 316 315
299 298 297 295 299 300 302 304 304 302 298 295 294 294 292 288 295 296 294 290 290 293 298 297 297 293 297 294 294 291 301 304 305 306 304 298 305 304 300 297 304 298 294 295 303 307 301 298 297 295 297 302 304 308 309 309 309 310 311 312 312 312 312 312 311 311 311 310 311 311 311 311 311 312 312 312 311 312 313 314 314 314 315 315 315 316 317
301 300 302 303 303 302 302 301 300 296 295 296 290 286 289 291 294 293 294 288 290 294 297 298 296 295 295 297 296 299 300 304 303 304 302 297 302 302 297 299 300 295 292 300 304 304 300 294 294 294 300 305 308 309 309 308 309 310 311 312 312 312 312 312 312 312 313 312 312 312 313 313 313 314 314 314 314 315 315 315 315 315 315 317 317 317 317
305 305 303 300 299 298 299 292 295 296 287 285 284 282 287 285 288 288 290 295 298 296 295 303 303 305 303 304 300 302 302 308 302 302 301 297 304 303 298 295 295 287 295 300 301 299 295 293 292 296 303 306 308 308 309 309 310 311 311 312 312 313 313 313 313 313 313 313 313 313 313 314 314 315 315 316 315 315 316 317 318 317 317 317 317 317 318
306 304 298 297 293 295 295 283 294 292 287 285 284 282 285 286 289 291 291 293 297 298 299 297 299 296 294 304 302 302 303 305 304 304 301 302 297 292 296 291 292 299 304 295 295 293 293 297 298 300 304 306 307 308 309 309 310 311 312 312 313 313 314 314 314 313 313 314 315 315 315 315 316 316 317 317 316 315 316 317 318 319 318 317 317 318 318
297 292 290 289 288 291 289 283 291 287 284 286 288 286 287 285 288 290 290 298 298 296 301 302 301 299 297 302 304 303 304 301 307 301 294 299 295 295 294 292 296 296 293 292 295 295 296 295 302 304 305 305 306 307 309 310 311 310 311 312 312 313 314 314 314 314 314 314 314 314 314 315 314 314 314 315 316 316 316 316 317 318 318 318 318 318 320
293 289 288 284 282 287 286 284 285 284 290 292 289 289 287 289 290 291 298 299 297 299 298 299 299 299 298 303 299 298 302 302 298 296 298 298 293 290 295 299 299 289 290 293 291 290 293 297 301 303 305 306 307 308 309 310 311 311 312 310 311 312 313 314 315 315 315 315 315 316 315 315 315 315 315 316 316 317 317 318 318 318 318 318 318 318 320
292 294 288 286 283 287 291 285 285 289 291 292 295 295 293 294 296 296 298 298 294 296 297 300 300 300 299 299 299 300 303 301 295 296 300 293 289 295 301 295 288 290 288 287 290 292 296 300 302 305 306 307 308 309 310 311 311 312 312 312 313 313 313 314 314 314 315 316 316 316 316 316 316 316 316 316 316 317 318 318 319 319 319 318 319 320 321
287 291 290 284 283 286 285 289 294 293 294 293 294 296 297 299 293 293 298 300 299 299 299 300 299 300 297 301 301 295 296 298 296 294 299 294 297 293 288 288 290 292 293 291 292 298 299 302 304 305 308 309 309 309 310 311 312 312 313 313 313 313 313 313 314 315 316 316 316 316 316 317 316 316 316 316 316 316 317 318 319 320 320 321 321 322 321
294 287 287 285 288 288 289 291 290 287 292 293 291 292 296 298 297 298 300 302 301 300 302 301 300 300 293 296 294 295 291 295 293 289 297 294 288 285 287 286 288 287 294 297 297 300 301 304 307 307 309 309 310 310 311 311 312 312 312 312 312 312 313 314 314 315 316 316 317 317 317 317 318 317 317 317 315 316 317 319 320 320 320 320 320 321 321
288 289 293 289 291 292 294 294 292 291 295 296 295 296 297 297 297 299 301 300 301 301 301 301 302 295 293 296 290 290 289 292 294 292 293 290 292 294 292 288 291 291 294 299 300 302 305 307 308 307 308 309 311 311 311 312 313 313 312 313 313 314 313 314 315 316 316 317 317 317 318 318 318 317 316 315 316 317 317 318 319 319 320 321 320 321 321
293 289 291 295 292 291 294 290 290 290 292 294 295 296 296 296 297 298 302 300 301 301 301 296 294 292 291 289 288 288 289 297 297 293 293 292 297 295 291 290 293 297 299 302 303 304 305 306 307 308 309 309 311 311 312 312 312 313 313 313 314 314 314 314 314 315 316 317 317 317 317 317 318 318 319 319 318 318 317 317 319 319 320 321 321 320 321
290 290 293 295 296 297 296 297 297 296 295 297 297 298 299 297 299 300 303 302 302 298 295 298 296 292 289 288 289 293 296 296 293 296 293 295 299 294 294 295 298 301 302 303 304 305 307 308 309 309 310 310 311 312 312 313 313 313 313 313 313 314 314 314 314 315 315 317 318 318 318 318 318 319 319 319 318 316 315 315 318 320 320 321 321 321 321
Wind_Speed
17 18 18 18 17 15 14 13 14 15 17 13 11 9 4 3 7 9 11 5 4 3 5 4 4 8 6 5 9 6 7 4 2 5 4 6 5 4 7 7 8 9 9 7 9 9 8 8 9 6 8 12 12 4 4 6 4 4 4 9 8 6 5 6 10 8 4 3 3 1 2 7 12 16 15 15 17 18 15 11 6 9 6 7 4 8 4
16 17 18 18 15 13 13 12 12 14 13 10 10 8 5 7 9 7 1 1 6 3 5 3 6 6 8 10 11 7 6 4 4 6 4 5 5 6 5 5 11 7 10 9 9 9 7 8 14 11 9 8 6 10 9 5 4 7 5 7 9 8 2 8 6 6 7 11 7 7 2 5 9 10 13 15 15 16 9 5 3 11 12 12 8 13 6
18 17 17 15 13 12 12 10 11 12 12 9 8 7 6 8 7 7 6 1 5 3 2 3 4 3 5 5 6 8 7 7 12 10 8 4 6 3 4 7 4 7 6 9 9 9 12 7 7 11 4 6 1 4 6 6 6 9 6 5 9 9 7 10 12 13 13 13 15 17 12 11 5 4 8 12 21 20 6 13 4 10 6 15 12 11 5
18 17 16 14 13 13 10 10 10 11 11 10 8 6 5 4 6 4 3 1 3 6 2 3 5 3 5 5 5 6 10 7 8 9 11 10 7 9 5 3 3 7 6 9 10 11 11 12 3 4 6 5 3 2 1 6 7 8 11 7 8 3 5 11 12 13 14 11 7 2 3 5 12 10 12 10 11 15 14 3 7 11 5 8 8 8 6
17 16 16 15 14 12 9 10 11 11 10 9 7 5 3 4 3 4 4 7 3 1 2 3 5 4 6 3 3 4 6 5 6 9 9 9 11 6 9 7 8 7 10 11 11 12 11 13 13 12 12 8 3 6 7 9 6 9 9 11 7 1 6 13 16 16 15 16 16 11 15 14 13 14 15 15 16 15 16 15 16 7 6 11 9 9 12
15 15 16 14 12 10 8 8 10 10 8 11 5 4 3 2 3 2 3 3 5 7 1 8 9 7 5 5 4 7 8 5 6 2 5 3 5 8 5 11 13 11 8 2 6 4 9 10 13 8 10 11 11 13 8 8 2 7 7 3 8 6 11 15 16 18 19 20 19 14 11 16 14 17 15 17 17 17 20 17 15 11 13 16 9 8 12
15 17 16 15 10 9 8 7 9 7 8 8 3 4 4 4 5 5 6 4 4 5 10 13 9 10 6 5 5 8 8 8 2 3 5 3 4 10 7 10 11 9 1 1 4 1 5 6 5 7 7 10 8 8 7 7 3 2 5 1 2 2 8 5 11 15 17 19 19 13 15 12 14 16 17 17 18 19 20 19 18 16 14 15 11 14 16
17 16 17 16 12 9 7 8 7 6 7 6 4 3 4 3 3 3 6 5 9 10 7 6 6 7 7 5 5 4 5 6 7 5 2 4 3 2 9 8 2 3 2 3 5 6 9 7 7 1 5 8 6 8 7 4 3 4 5 4 3 3 2 1 7 9 14 17 16 12 14 15 17 16 15 17 18 19 21 20 18 16 18 17 15 14 13
17 17 15 16 14 9 8 7 7 4 4 4 2 3 1 3 4 5 6 8 6 6 5 4 5 6 4 5 3 4 3 4 9 10 8 10 6 1 0 7 8 1 3 5 8 8 3 5 9 11 7 7 2 2 1 2 3 1 3 2 5 3 4 1 2 5 8 10 13 13 14 16 19 20 18 14 14 15 11 12 6 11 10 9 4 7 9
16 18 16 16 15 13 9 7 6 4 2 3 3 3 2 4 4 4 4 5 6 7 6 6 5 5 2 3 4 4 6 8 10 8 5 8 11 8 7 7 8 8 4 7 5 1 7 11 12 11 11 10 13 10 9 5 3 0 2 1 4 2 3 4 1 7 9 6 9 14 14 10 13 17 18 15 12 10 11 13 12 15 15 12 11 11 7
17 16 17 15 13 14 14 10 6 4 3 5 4 4 3 3 3 3 3 7 6 5 5 6 5 4 4 5 9 8 9 8 7 4 4 6 2 4 12 11 7 7 7 4 5 10 12 13 14 11 11 14 13 10 9 8 6 5 6 1 4 2 3 5 1 5 6 5 4 5 6 10 10 10 18 18 17 15 13 13 13 13 12 9 11 11 11
18 18 15 16 13 12 14 13 8 6 7 4 3 5 3 2 2 2 3 6 6 3 4 6 6 7 10 12 8 11 13 12 9 6 12 12 15 14 10 10 6 5 2 10 13 12 14 13 10 7 10 12 12 12 12 11 9 8 7 7 4 9 6 5 1 3 5 3 6 6 12 11 7 5 3 13 19 19 21 19 18 17 17 9 6 8 8
18 17 16 16 14 11 11 14 10 5 5 4 4 5 4 4 3 2 3 5 7 5 6 7 7 10 11 12 13 12 11 11 12 13 12 14 16 8 6 6 8 8 13 15 14 11 6 6 4 5 8 8 9 12 12 13 12 10 7 8 6 5 4 3 3 2 1 2 4 5 5 3 4 3 2 3 5 9 13 15 5 5 13 14 14 13 14
18 18 16 16 15 13 12 14 12 7 7 7 6 6 4 5 4 3 3 4 7 6 7 10 11 12 11 8 7 10 11 12 10 9 9 5 11 11 8 7 7 11 12 10 9 3 4 3 5 5 6 6 5 6 10 10 10 11 10 10 8 7 2 2 6 3 4 2 3 8 6 7 3 2 4 6 7 11 14 11 14 14 12 13 14 15 12
16 17 17 17 16 15 15 13 10 9 6 8 5 6 5 5 5 4 3 4 9 9 7 6 2 4 8 10 9 10 8 8 9 7 9 10 10 5 5 10 11 12 11 6 3 3 3 3 4 6 5 7 8 6 4 6 4 9 8 10 10 6 6 1 2 1 1 7 8 6 6 10 7 3 4 4 6 6 4 7 8 5 9 11 12 13 11
16 15 17 15 15 15 15 14 12 11 7 9 7 8 6 6 5 4 4 5 5 8 7 8 8 8 7 7 8 9 8 8 7 9 9 4 4 10 12 10 13 11 8 5 2 2 2 5 4 4 5 7 3 3 5 4 4 6 10 11 10 4 1 1 3 5 2 3 4 5 8 5 5 5 6 7 8 7 4 6 11 6 10 10 11 11 8
16 16 15 15 13 13 13 13 14 10 9 8 5 5 6 7 6 6 5 6 6 10 9 13 12 11 9 9 7 6 4 5 7 6 6 6 10 13 13 14 11 5 7 3 1 3 4 4 2 4 3 2 7 5 5 4 6 7 10 10 9 5 1 2 5 5 2 2 2 6 4 3 5 9 11 12 10 4 5 10 7 6 6 7 9 11 9
16 16 13 13 12 13 14 14 12 11 8 8 6 5 5 7 8 6 5 6 7 11 11 14 14 10 8 6 9 7 6 6 5 6 6 9 9 6 11 11 7 4 7 1 2 3 3 2 5 5 7 3 3 4 6 6 6 8 8 8 6 6 3 5 11 8 3 2 3 4 5 1 8 13 16 14 6 3 8 10 3 2 1 4 6 8 8
15 14 15 13 13 13 13 12 11 11 11 10 8 6 6 6 7 8 4 6 6 8 4 5 9 12 11 9 9 8 7 8 8 7 8 7 1 9 15 8 4 5 6 3 1 2 3 3 2 1 3 3 4 3 2 6 4 1 10 5 4 4 4 0 1 4 5 1 3 6 6 3 10 16 17 9 5 9 12 1 1 3 2 4 4 5 6
14 13 13 13 13 13 13 12 11 10 9 8 5 6 1 5 7 9 7 7 6 12 12 12 9 15 9 10 10 10 9 9 7 7 7 7 7 15 8 4 2 6 5 5 2 1 2 3 1 2 2 3 1 4 2 2 1 3 3 8 8 9 7 6 6 2 2 1 1 4 5 3 18 21 12 2 6 2 2 2 6 4 7 9 8 5 6
13 12 13 13 12 12 11 11 10 10 7 7 7 5 6 5 6 8 9 7 5 10 11 8 12 14 12 13 13 12 11 11 8 7 6 7 6 5 4 1 7 6 3 4 3 2 3 2 3 1 2 4 4 4 1 1 3 3 3 2 3 8 8 2 2 2 2 2 2 2 2 10 14 11 6 7 6 4 1 5 7 8 10 10 9 9 8
12 11 12 11 11 11 11 10 9 8 9 7 7 3 6 4 5 6 8 7 8 11 11 10 10 12 13 14 13 13 14 15 15 11 9 10 6 5 8 11 10 4 3 3 3 1 2 3 2 1 2 2 2 2 4 3 6 5 1 2 5 4 3 3 2 2 2 2 3 1 4 8 10 9 8 8 7 5 6 6 8 10 9 7 10 11 9
11 12 11 12 11 11 10 8 8 8 8 8 7 5 6 3 5 5 3 4 7 10 10 12 12 13 13 16 18 18 17 16 16 16 14 11 12 8 9 9 8 4 4 2 1 3 3 4 2 2 3 1 4 4 1 3 2 5 2 6 3 3 4 2 4 3 4 6 3 2 6 8 11 10 9 10 8 8 7 7 10 9 8 8 8 7 8
11 11 11 11 11 10 9 8 7 6 6 4 5 4 5 6 4 3 5 6 6 9 10 10 9 8 6 9 7 10 13 14 16 15 11 11 12 9 5 9 5 4 4 4 4 4 1 4 3 3 0 2 4 3 3 2 4 4 2 3 4 5 10 5 2 8 5 3 2 5 6 7 10 11 11 8 8 6 6 9 10 8 8 9 10 9 10
9 8 10 10 10 10 9 8 7 7 7 8 7 6 6 4 4 4 4 6 5 4 8 9 11 13 14 13 11 11 11 9 9 11 13 14 15 11 7 3 7 3 4 6 5 6 2 4 3 1 2 2 4 2 3 4 2 5 3 4 5 1 9 4 1 8 3 6 9 8 7 4 5 7 8 8 10 10 10 10 11 11 12 11 10 12 12
9 9 9 8 7 7 6 6 6 6 6 6 7 5 4 4 3 4 5 6 4 3 6 11 7 1 4 9 12 10 8 8 10 13 15 16 17 17 16 11 10 6 4 6 5 3 5 4 3 3 1 2 1 1 2 5 3 3 4 5 4 8 8 2 5 1 3 7 4 5 11 8 9 9 9 7 6 6 10 12 15 16 16 16 16 15 13
8 9 8 6 6 6 6 7 5 6 7 7 6 4 5 5 5 6 6 3 3 7 7 11 10 9 6 14 16 12 13 13 13 13 14 16 17 15 14 13 12 8 5 5 3 4 3 4 3 4 5 3 1 1 1 3 3 2 2 4 10 5 1 5 3 3 3 1 7 6 9 4 4 6 7 7 7 6 11 13 16 16 15 14 16 16 15
7 6 6 7 6 3 3 6 4 6 6 5 5 5 6 7 7 9 7 6 7 8 9 11 12 12 13 19 13 7 7 9 11 12 13 14 15 14 13 14 10 8 6 4 3 3 2 3 4 2 2 1 3 3 2 2 1 2 2 6 9 6 6 5 2 2 1 5 2 6 3 12 9 2 4 6 7 6 12 12 13 13 14 13 14 15 15
6 6 5 5 6 5 5 5 5 6 5 4 3 6 7 10 10 10 10 8 7 7 8 11 12 12 7 7 11 11 9 8 9 11 11 12 14 13 13 12 10 8 5 5 5 4 3 5 4 5 4 2 2 3 4 3 1 3 5 7 8 8 7 6 6 2 6 6 9 10 4 8 8 4 3 5 6 9 12 11 11 12 14 15 15 12 13
6 6 6 6 5 4 3 6 6 4 0 1 2 3 4 0 2 4 9 8 7 5 5 6 7 5 6 7 9 8 8 6 7 10 11 10 11 11 11 10 9 8 5 4 0 3 1 3 3 4 3 3 3 3 2 2 4 4 6 4 4 7 7 9 3 4 5 7 14 14 12 12 6 5 6 5 4 7 10 10 10 11 11 12 13 11 12
4 5 5 4 4 4 4 1 5 3 3 1 1 3 2 2 4 3 6 6 6 4 4 3 8 8 9 6 8 11 10 6 6 7 11 11 10 11 8 6 4 6 5 4 1 3 1 3 3 2 1 1 2 1 2 2 3 3 7 5 4 5 10 9 7 7 6 11 13 12 10 9 6 9 11 9 8 7 9 9 11 12 12 13 12 11 9
5 6 5 6 6 6 6 6 4 3 3 3 4 3 1 1 2 2 2 5 3 4 3 5 7 5 7 6 4 6 8 7 4 4 4 6 6 7 6 8 6 8 5 3 2 1 3 3 3 3 3 3 3 4 3 4 6 5 5 5 6 6 8 9 10 10 11 10 9 15 14 12 13 10 5 5 5 7 10 9 8 10 11 10 8 10 10
6 6 6 5 6 6 6 5 4 4 4 5 7 11 15 16 13 8 7 6 4 4 3 4 5 6 5 6 9 6 3 2 3 3 3 5 4 6 5 6 4 3 5 3 2 2 1 0 3 2 5 3 3 4 6 7 6 4 5 4 5 5 8 8 9 10 11 12 11 11 8 8 8 9 6 5 7 6 5 7 7 8 10 12 13 13 12
7 7 6 6 6 7 6 6 5 4 2 3 6 4 3 8 9 9 6 3 2 3 2 3 4 5 8 7 6 2 1 2 2 4 3 3 3 5 4 5 4 4 5 5 0 2 1 1 2 2 2 6 4 4 6 6 5 6 6 6 5 4 6 9 9 9 10 11 10 10 9 7 6 7 9 10 9 8 7 7 11 14 14 14 14 12 10
8 8 8 8 8 7 8 7 4 3 4 5 5 5 3 7 7 5 8 5 3 2 3 3 3 5 6 5 3 1 4 3 3 4 3 3 2 4 3 3 2 3 1 1 1 1 2 3 2 2 4 3 4 6 5 5 6 6 5 5 6 6 3 7 8 7 8 7 8 9 10 10 9 8 7 8 9 9 9 11 12 14 12 10 10 10 8
8 9 9 9 10 7 4 2 3 3 3 3 3 3 6 6 8 5 6 4 3 2 3 3 3 4 3 5 5 3 7 3 1 1 0 2 3 1 2 3 4 1 1 2 1 2 3 3 1 5 3 5 6 5 5 5 6 6 7 6 6 5 5 6 9 9 7 7 7 6 6 7 8 7 6 6 5 5 5 8 8 9 11 8 6 4 5
9 10 11 10 4 2 2 2 1 3 3 3 6 11 13 4 3 3 4 4 5 4 4 4 6 6 3 5 4 4 6 3 2 1 2 3 4 3 3 2 3 2 2 4 4 5 6 4 6 9 8 7 6 6 7 7 7 7 7 6 6 6 6 7 7 10 11 7 6 4 4 4 4 3 3 3 4 3 7 9 8 9 9 8 7 6 4
11 8 4 2 2 2 1 1 2 2 8 11 9 5 2 2 2 1 2 3 3 4 4 3 6 2 1 3 6 3 4 3 2 0 2 0 3 3 1 1 3 2 5 5 5 3 4 5 6 9 7 8 8 8 7 7 6 5 5 6 5 4 2 3 6 7 9 7 3 1 1 1 1 2 2 1 3 6 6 5 5 6 5 5 4 4 4
3 2 1 1 2 2 2 1 3 10 8 3 1 2 1 1 1 2 2 2 1 3 3 4 4 1 4 5 8 4 4 5 5 2 2 1 1 3 2 5 2 2 2 3 4 2 4 7 6 7 8 5 6 7 6 6 6 6 6 6 5 4 2 4 3 2 2 3 3 2 2 2 4 2 2 2 3 4 5 5 6 6 6 5 5 5 6
2 3 3 3 2 2 3 3 8 7 2 1 1 1 2 1 2 1 2 1 2 2 2 4 3 4 6 5 5 6 1 2 3 4 2 2 2 1 2 2 2 1 3 3 3 3 6 7 4 4 7 5 5 5 5 5 6 6 6 7 7 7 7 6 6 5 5 5 4 3 3 3 2 1 2 2 4 5 5 4 3 4 4 5 6 5 6
4 4 3 3 4 5 6 8 5 1 1 0 0 1 1 1 3 2 1 2 3 2 3 3 1 2 3 2 2 5 5 2 5 3 3 3 1 1 2 3 1 3 2 4 1 1 3 5 5 4 4 5 5 5 5 6 6 6 6 6 6 5 6 6 5 4 3 3 3 2 2 2 2 2 2 3 3 4 3 3 4 4 5 6 6 5 3
5 4 6 7 8 8 5 2 1 0 0 1 0 1 1 2 0 2 3 2 2 1 2 3 3 1 3 5 4 3 5 3 3 2 2 3 5 3 3 2 1 2 3 0 2 0 3 5 4 4 2 5 5 4 5 6 6 6 6 5 5 4 4 4 5 4 3 3 3 2 2 3 3 3 2 3 4 3 3 3 4 5 5 4 3 3 4
12 10 4 3 2 2 2 1 0 0 0 1 1 1 0 1 0 2 1 2 1 1 2 1 0 1 5 2 4 6 5 2 2 1 1 3 2 2 3 2 2 2 1 3 1 4 5 5 4 4 2 4 6 5 4 4 4 4 4 4 4 3 3 4 5 5 4 4 4 3 3 4 4 3 2 3 3 4 4 3 4 4 4 4 3 3 3
2 1 1 1 1 1 1 1 0 1 0 1 1 3 3 2 3 3 3 3 3 2 1 3 3 4 3 3 2 3 3 3 3 1 4 1 3 3 3 3 3 1 2 2 2 7 5 4 5 6 4 4 4 4 4 4 3 4 5 4 3 3 4 4 4 5 6 4 5 4 4 4 4 4 4 4 5 5 4 4 4 4 4 3 3 4 4
1 2 1 0 1 2 0 1 1 1 3 3 2 2 3 4 5 4 3 3 1 4 4 1 1 1 5 3 2 3 1 2 2 1 2 2 4 3 3 3 2 1 2 4 3 5 4 6 5 6 6 4 4 3 3 3 2 2 2 4 5 4 4 5 5 5 5 5 5 5 5 5 5 4 5 5 5 5 5 5 5 5 5 5 5 5 5
4 2 2 2 3 3 2 1 2 2 2 1 1 2 3 5 3 6 4 3 5 5 5 5 4 3 4 1 1 2 2 1 2 3 1 2 4 2 2 2 2 2 2 2 5 6 7 7 6 5 4 3 2 2 2 2 1 1 1 4 3 3 3 4 5 5 5 5 5 5 6 5 6 5 5 5 5 5 4 4 4 4 4 5 6 6 5
1 2 1 1 1 1 1 2 3 2 3 4 4 4 5 7 7 7 5 3 7 6 7 6 5 3 2 3 3 0 1 1 3 1 0 5 3 1 1 2 3 2 3 4 5 5 5 6 5 3 4 2 2 2 2 2 2 2 2 2 3 4 4 6 7 7 6 5 6 6 6 6 5 4 4 5 5 4 4 4 4 4 4 4 4 4 4
2 2 0 3 3 2 4 1 2 5 6 7 6 6 6 3 2 5 6 7 7 6 5 4 2 3 3 2 2 1 3 3 3 3 3 2 0 2 1 2 4 3 3 3 6 4 6 6 2 1 2 1 3 3 3 3 4 4 4 5 6 6 6 6 6 6 6 6 6 6 6 6 5 5 4 4 4 5 4 4 4 4 4 4 4 4 4
1 1 1 2 1 0 3 3 2 4 7 8 6 6 5 5 4 3 3 2 3 5 5 4 0 1 2 2 1 1 3 5 3 1 1 2 2 1 1 2 3 4 4 3 4 2 3 4 4 3 2 3 3 3 3 3 4 5 6 6 6 5 5 5 4 4 4 4 4 5 5 4 4 4 4 5 5 5 5 4 5 4 4 5 5 5 5
1 0 1 1 1 2 5 5 4 4 6 3 2 4 6 7 8 6 5 5 2 1 2 2 1 1 1 1 1 2 1 2 3 1 4 4 4 2 2 6 4 3 3 2 4 5 4 4 3 2 3 3 4 4 4 4 5 5 5 5 4 4 4 4 3 3 3 3 3 3 3 3 4 4 4 4 4 3 3 4 5 6 5 4 4 4 4
0 1 1 2 3 5 6 7 9 8 10 10 9 8 8 8 8 8 8 5 4 1 2 3 2 2 1 3 2 2 2 2 3 3 2 5 3 3 4 5 3 4 6 4 3 2 3 2 2 2 3 4 4 4 4 3 4 4 4 4 4 3 3 3 3 3 2 2 2 1 3 3 2 2 1 1 2 2 3 4 5 5 5 4 3 4 4
2 2 3 2 2 3 4 4 3 2 4 7 7 7 6 8 10 8 7 5 3 5 3 2 1 2 2 3 1 1 2 0 2 2 6 4 3 3 4 5 7 5 4 4 4 3 2 1 2 3 3 3 4 4 4 3 3 3 4 4 4 4 4 4 3 3 2 1 0 0 1 2 1 1 1 1 3 5 6 5 5 4 4 3 3 3 3
Wind_Direction
314 315 317 321 320 323 325 327 331 333 336 346 349 333 307 296 254 299 313 218 218 243 239 239 211 227 238 318 281 259 273 260 258 229 171 205 203 204 213 201 206 219 236 212 232 221 249 236 235 235 232 246 235 234 151 111 167 229 209 199 193 123 196 187 233 234 246 228 92 111 187 214 212 209 207 193 209 205 216 219 132 204 152 201 177 233 233
310 311 314 317 316 318 322 325 330 331 343 343 337 336 315 301 292 310 162 312 205 225 244 232 229 243 248 248 262 273 275 278 268 227 226 218 167 204 196 213 219 244 203 222 229 186 249 215 231 241 227 252 232 240 238 190 222 202 167 214 148 196 162 208 202 230 227 231 210 210 124 212 214 210 206 204 209 210 220 85 83 223 183 197 187 236 186
308 309 311 311 313 314 318 323 324 328 329 341 343 328 315 293 261 238 289 176 207 240 326 304 302 298 321 305 266 251 240 228 243 250 244 232 243 214 227 226 189 221 205 226 233 213 226 275 225 239 208 244 351 285 242 215 232 233 218 239 154 216 165 187 210 210 217 208 208 212 200 202 202 240 211 208 208 207 158 208 160 226 161 199 215 228 156
304 306 306 307 308 310 312 319 322 322 324 331 337 318 307 323 326 300 269 183 221 237 271 30 353 323 341 303 261 243 251 254 248 234 250 236 235 235 258 232 236 249 240 246 237 238 227 231 239 193 230 238 224 164 212 199 238 243 233 217 176 226 181 191 199 211 222 228 226 176 136 139 217 195 211 201 225 214 202 193 205 215 147 209 209 218 190
303 303 303 303 304 309 318 320 318 317 320 328 327 294 241 306 249 308 321 321 219 130 44 13 5 347 339 280 330 281 248 264 257 194 246 198 226 224 219 229 230 224 234 240 247 242 243 233 246 249 262 263 267 299 323 313 286 273 285 237 206 112 216 196 205 211 220 216 213 196 195 213 207 211 207 198 196 204 211 203 222 143 120 231 201 194 220
300 299 299 300 301 307 312 311 312 311 313 324 318 295 240 243 256 1 6 308 296 329 254 4 326 307 297 273 292 278 286 280 260 251 238 346 221 219 189 227 228 237 228 172 234 215 230 235 245 250 247 271 276 283 266 260 273 345 345 241 193 211 222 203 203 212 218 224 223 200 196 215 209 215 210 201 193 194 209 216 219 157 211 232 194 168 212
296 298 299 301 303 301 302 304 305 310 311 321 306 291 280 265 306 294 344 281 289 288 301 313 296 297 285 272 271 276 283 283 309 311 319 272 207 205 227 208 218 223 36 230 242 217 257 234 220 236 240 232 251 252 261 235 178 1 347 203 198 257 247 221 211 221 218 223 224 202 201 213 217 213 211 204 197 199 205 211 214 203 224 232 218 182 209
296 293 293 296 295 291 293 298 298 301 308 311 286 275 298 314 340 302 354 299 291 291 296 292 304 292 294 280 249 282 282 294 345 323 293 275 244 153 229 237 75 347 317 220 227 215 237 280 274 240 261 253 205 247 240 246 160 34 13 348 65 252 250 167 192 225 232 233 230 212 206 215 225 219 211 207 203 203 202 209 209 202 218 218 215 198 215
296 295 293 293 290 282 284 283 285 296 299 315 324 305 282 297 291 284 300 302 281 271 282 304 310 303 273 240 279 320 307 342 348 302 258 244 270 170 285 19 340 25 295 249 249 258 286 325 278 280 277 269 32 264 94 9 278 74 42 6 334 268 261 65 168 228 240 230 226 215 212 215 225 230 222 205 201 207 210 221 177 188 201 207 184 222 227
289 289 287 286 290 292 280 267 267 269 230 275 287 275 316 285 265 266 269 270 285 303 295 288 284 256 270 335 353 336 314 329 331 314 252 237 255 282 1 358 343 295 265 274 274 16 307 291 279 273 270 260 268 256 265 282 283 6 53 343 291 310 313 291 205 241 254 232 202 215 206 210 231 230 229 216 198 203 202 214 194 199 196 204 208 227 209
293 291 290 287 284 284 287 281 252 249 221 257 251 267 288 313 321 322 265 268 273 254 291 278 248 281 352 341 330 315 299 312 314 284 301 344 329 20 347 327 314 292 276 293 341 310 295 281 271 262 252 246 245 248 242 241 212 185 141 68 307 313 297 299 346 279 272 291 199 139 154 218 224 218 217 211 209 202 210 211 208 216 206 209 205 213 218
293 293 289 281 282 285 283 282 274 207 203 252 232 256 247 251 232 249 273 261 267 277 277 271 278 291 305 306 307 297 300 300 296 297 286 283 284 301 306 299 272 268 30 328 320 312 296 264 247 238 239 241 237 235 225 226 218 197 147 138 254 285 282 275 226 259 292 88 146 184 226 235 221 195 188 213 218 209 210 214 207 205 206 210 226 232 220
292 289 285 283 280 278 280 283 273 259 203 217 197 234 204 192 237 262 276 274 271 282 288 278 274 275 280 287 290 284 285 290 293 288 274 276 287 284 265 280 276 279 335 318 313 310 314 278 237 206 210 205 219 218 210 210 197 180 179 140 129 253 244 240 215 243 210 236 204 241 238 298 345 346 138 121 213 227 223 235 261 235 211 204 216 214 219
290 288 290 285 282 278 268 262 267 263 207 205 237 229 199 202 215 225 227 261 268 254 274 291 285 275 271 274 300 305 305 298 298 286 275 262 276 293 287 264 284 314 304 307 293 278 262 214 228 190 174 172 176 214 206 199 198 189 161 149 157 239 288 253 310 156 289 333 280 276 341 289 217 226 176 178 177 172 184 213 228 203 198 197 211 224 222
290 290 287 287 289 286 280 274 261 243 239 201 225 231 214 203 215 234 249 243 271 279 269 257 269 326 316 302 314 310 305 308 317 306 292 279 269 257 301 314 311 301 298 276 253 220 255 282 237 208 170 186 199 207 126 214 193 209 167 126 149 193 246 167 273 297 262 299 299 279 260 260 224 154 32 4 331 307 304 216 223 151 193 200 209 224 218
292 293 289 283 281 283 287 287 286 272 220 196 220 236 211 194 204 227 236 245 280 284 254 234 264 300 302 301 305 300 298 305 309 310 304 294 280 321 317 319 307 295 277 225 256 277 242 229 232 225 208 199 143 169 200 161 183 175 173 140 112 113 179 199 270 274 200 218 264 274 279 268 38 45 3 351 332 303 249 200 228 167 187 191 203 219 216
292 288 286 286 281 278 274 270 265 258 252 205 218 226 238 178 196 204 216 227 222 244 294 298 305 306 304 295 290 271 280 291 322 331 323 329 331 319 309 321 304 279 290 226 228 237 222 236 297 283 279 237 192 195 101 176 166 164 134 122 104 97 312 255 236 244 220 251 259 290 259 307 26 350 337 326 322 310 217 210 213 148 174 180 191 210 202
287 286 289 287 287 283 282 281 276 270 260 216 216 232 241 170 195 196 224 237 249 265 260 269 275 276 269 298 294 303 304 292 298 305 278 298 303 332 333 327 333 305 308 307 59 234 216 227 218 233 245 261 318 159 213 161 191 169 170 153 137 127 202 234 252 255 179 172 295 290 257 109 14 344 325 318 283 225 204 209 162 78 192 154 183 207 201
289 298 298 295 294 288 282 282 287 286 265 231 216 231 242 200 187 197 236 247 237 253 251 285 301 290 282 290 277 284 284 302 310 310 308 320 337 343 311 275 282 322 349 349 309 231 203 198 40 338 276 266 265 228 94 193 211 115 126 118 111 122 112 218 268 233 243 306 287 287 303 65 347 341 328 298 202 186 208 82 338 281 91 103 143 166 162
292 292 290 289 286 283 283 282 272 263 262 242 198 238 213 173 201 204 211 235 243 262 267 265 262 268 277 283 282 280 282 278 273 278 283 270 347 347 328 168 46 351 326 337 178 312 248 195 164 10 269 264 298 344 270 256 23 155 193 174 179 174 157 221 235 183 134 160 344 316 270 79 358 342 318 76 281 1 352 66 51 69 82 83 69 88 120
290 287 288 291 287 281 280 278 278 275 260 244 214 231 243 193 192 210 220 238 264 278 278 252 250 259 269 266 266 273 275 269 276 274 276 287 321 341 318 26 357 342 341 350 350 16 7 12 96 291 291 284 333 283 228 344 177 64 358 202 172 142 181 183 243 264 241 107 147 204 1 318 337 344 317 345 321 323 250 76 86 65 75 77 81 62 68
288 291 293 290 283 279 279 275 271 271 261 216 166 212 248 210 186 219 229 222 240 246 264 288 299 285 273 268 265 258 257 261 263 270 282 285 274 265 282 298 294 295 292 324 320 324 17 4 220 274 267 270 259 273 335 240 182 347 349 175 188 356 179 130 206 188 258 213 205 177 36 337 337 336 325 317 334 342 336 58 66 85 69 61 85 89 83
291 293 293 293 293 288 282 284 285 282 277 254 214 211 237 214 199 200 190 254 249 262 270 275 263 257 254 250 244 247 246 241 246 246 242 259 282 257 250 256 266 230 252 310 310 287 335 324 301 287 257 18 6 335 324 345 59 9 3 21 45 27 6 359 116 180 127 61 53 303 48 346 340 337 354 351 358 10 18 58 74 47 61 55 75 61 71
296 301 301 298 299 290 283 277 272 281 278 254 205 219 237 238 219 206 239 237 261 287 285 251 245 254 241 261 263 236 237 240 233 237 231 212 241 271 245 235 235 271 245 29 349 336 307 285 275 313 264 324 353 338 327 70 42 331 314 28 338 22 19 357 177 162 159 106 140 81 40 355 343 346 351 8 3 8 30 59 58 54 56 66 60 67 57
298 298 291 290 291 294 290 282 278 269 261 254 231 232 247 256 229 210 244 269 264 292 295 296 263 260 271 277 280 271 257 250 240 228 217 209 217 231 241 141 182 249 329 346 353 341 309 295 304 342 345 17 51 296 298 293 105 339 43 43 345 23 3 324 320 184 180 134 140 116 88 18 9 1 355 1 14 28 49 64 66 61 55 53 54 61 54
293 291 290 293 291 292 298 293 281 289 293 283 253 223 221 240 193 196 232 251 277 265 276 281 293 14 318 300 273 263 263 246 240 233 223 215 214 224 246 275 285 281 313 325 330 306 302 280 289 270 152 278 160 319 295 311 321 322 41 56 353 299 310 4 336 333 6 66 64 130 96 74 38 16 21 10 356 41 45 60 69 64 55 51 49 51 61
298 298 297 296 295 304 305 291 286 290 289 257 241 237 238 247 206 201 221 229 288 279 244 261 284 290 300 288 282 278 259 247 241 234 231 223 221 222 231 247 260 279 291 294 289 262 243 253 227 249 216 259 49 332 186 280 304 6 29 19 353 340 34 345 253 130 203 179 183 162 121 116 20 18 6 1 351 47 71 62 63 68 67 56 59 54 52
307 309 303 297 296 299 294 291 303 273 260 263 249 246 242 242 230 223 217 218 219 257 294 294 296 297 306 279 275 269 254 229 217 217 219 222 220 220 224 232 240 261 260 255 260 199 215 270 259 240 242 143 169 208 248 6 52 47 9 352 351 348 332 325 352 139 172 4 28 353 66 109 127 117 345 11 349 40 64 67 78 75 75 73 69 67 59
314 310 310 307 315 315 325 310 268 259 258 263 274 273 268 244 243 222 220 211 223 250 269 283 283 285 286 309 311 291 272 245 227 213 208 207 209 213 220 221 222 227 240 256 264 273 255 256 264 264 259 135 226 152 174 171 95 50 354 352 348 342 335 287 268 349 49 45 64 32 47 108 128 144 142 70 352 38 55 55 55 67 74 75 67 61 70
322 321 316 308 299 302 277 286 307 309 220 287 299 295 294 175 108 242 221 215 212 223 261 286 299 295 308 294 288 291 288 265 233 211 207 201 199 204 211 208 217 212 215 241 233 276 224 275 257 256 241 161 240 167 171 119 92 60 33 35 10 313 357 15 38 113 82 67 79 77 76 84 97 98 68 75 89 97 84 57 47 59 59 67 74 66 53
333 318 301 293 294 296 297 266 276 265 145 242 324 294 297 315 43 31 171 196 183 205 255 266 269 292 291 252 266 280 280 263 222 212 206 202 201 203 202 185 201 174 202 222 224 233 322 253 279 274 262 171 271 67 78 128 108 77 45 36 4 7 30 4 10 41 67 80 84 82 69 66 81 85 58 44 48 61 79 82 76 68 66 64 63 62 55
309 305 306 306 302 294 287 283 278 246 224 246 231 230 286 85 160 99 175 141 134 235 270 295 301 297 303 284 260 277 281 263 230 195 185 178 196 191 183 185 194 193 202 209 233 243 231 239 250 305 327 351 357 84 55 68 90 82 62 31 30 38 45 18 12 32 39 38 92 80 52 37 19 30 58 16 46 65 75 77 76 85 83 83 78 74 74
326 318 302 290 293 291 290 292 287 252 258 268 280 275 273 267 258 228 240 256 271 263 275 276 275 305 283 306 316 289 217 206 186 201 185 180 165 157 179 193 201 184 202 240 226 236 355 275 242 64 27 330 84 96 77 71 72 57 57 49 46 48 58 50 33 27 37 54 52 74 75 38 8 359 356 25 32 31 58 89 102 96 74 61 49 45 41
325 321 316 308 299 296 294 293 291 284 259 263 278 253 222 227 247 239 202 197 254 256 262 275 297 297 290 308 291 69 357 291 165 182 171 162 155 169 154 161 174 215 169 213 233 305 240 225 16 41 28 39 17 86 72 61 44 59 60 55 30 72 83 70 56 42 32 40 55 77 84 80 63 24 15 18 22 19 32 39 56 60 56 52 43 32 17
327 318 314 308 305 303 296 283 272 252 279 275 265 266 261 220 193 177 168 168 193 230 229 240 228 297 315 327 311 316 8 283 199 181 199 136 223 161 125 149 103 222 116 229 300 349 4 43 340 51 42 357 43 62 63 46 49 47 43 43 17 345 61 71 53 50 45 29 46 40 44 44 35 38 19 1 8 2 22 37 46 63 60 53 47 32 11
326 319 309 303 299 294 285 260 231 240 234 248 235 264 228 245 196 181 178 213 272 277 265 289 285 288 309 313 328 340 341 312 18 186 15 122 159 111 156 122 151 166 93 178 70 33 33 345 289 60 30 63 56 51 47 24 38 42 42 38 23 26 51 99 116 94 77 65 48 39 38 31 34 9 355 347 348 358 28 55 47 57 70 68 63 58 19
313 307 302 295 284 228 250 258 174 224 264 302 294 288 290 281 99 141 166 211 227 237 269 286 284 261 227 304 304 283 325 339 13 188 153 171 153 157 173 175 120 138 146 95 98 78 54 20 81 87 66 77 73 53 47 44 37 29 31 25 42 55 71 74 86 103 97 71 41 5 16 35 30 323 328 346 317 340 50 50 44 49 54 53 46 45 28
310 306 310 312 285 296 313 202 205 299 292 283 290 279 121 198 246 169 177 222 203 197 225 237 257 293 296 265 265 8 327 284 317 182 144 3 141 147 234 142 111 170 110 112 83 64 75 65 82 90 82 65 63 44 35 39 44 44 41 44 53 63 69 106 107 106 105 103 90 65 47 344 116 225 245 294 358 27 29 28 33 35 45 48 46 24 21
318 284 258 50 331 287 281 339 346 324 303 268 200 259 255 185 229 234 218 207 172 228 212 228 263 230 240 252 266 263 244 311 317 270 141 85 254 138 233 144 118 143 115 135 93 284 96 91 94 92 88 76 54 29 18 26 38 35 40 49 54 66 85 86 77 95 94 93 110 155 223 180 164 172 271 35 40 42 31 26 29 23 20 21 21 16 20
346 351 346 313 248 274 333 350 341 325 258 214 149 290 277 177 226 253 146 218 238 223 190 245 229 225 222 247 307 316 267 257 324 12 28 97 343 144 138 73 27 118 108 107 82 332 129 114 112 107 99 66 63 36 35 34 41 32 29 29 35 39 39 54 60 55 72 73 66 59 39 22 20 53 59 39 51 66 64 54 38 22 18 21 22 22 21
4 332 314 310 319 320 310 317 317 234 240 155 266 239 308 251 216 231 226 252 259 211 191 235 178 244 203 221 205 260 292 286 265 265 281 37 18 248 99 82 18 87 85 108 23 5 92 103 95 72 68 58 48 27 49 62 54 40 31 28 36 35 39 52 51 48 71 90 88 70 32 35 49 40 36 51 65 78 72 54 35 25 19 18 19 17 6
298 286 288 289 289 289 296 257 228 336 76 333 324 272 221 285 199 228 218 282 32 33 180 190 245 250 268 179 209 228 272 228 273 266 259 54 1 24 90 98 64 107 121 68 294 128 117 97 90 84 28 81 80 33 39 60 51 51 38 30 29 37 54 72 82 73 68 85 86 81 74 70 72 60 64 92 97 89 71 60 50 39 31 22 10 22 20
277 264 256 274 302 259 249 291 138 29 315 337 337 303 233 283 310 323 308 217 285 307 43 162 129 293 283 268 252 195 250 1 301 306 51 48 331 19 60 58 65 58 19 348 271 115 93 94 92 85 78 55 60 49 30 48 46 54 44 28 27 21 38 66 69 68 60 66 65 56 55 63 64 60 70 96 99 90 79 64 41 32 29 25 28 21 15
317 135 172 261 301 285 293 327 264 225 81 36 11 0 329 347 48 356 335 12 348 330 33 12 11 32 313 207 270 299 253 207 217 239 71 39 55 5 36 49 42 50 232 68 31 86 85 69 97 127 114 68 45 30 17 20 23 66 73 58 56 64 81 84 85 86 76 72 67 69 66 61 65 69 61 54 43 42 42 46 35 19 17 20 25 20 13
295 18 8 14 345 285 320 3 325 64 32 349 351 351 347 334 331 323 309 344 317 299 322 327 245 256 278 284 257 239 269 332 331 61 52 358 78 6 38 81 130 137 38 72 68 87 89 97 108 88 68 53 37 8 8 28 4 1 51 67 64 68 85 91 87 85 78 68 63 63 60 51 53 51 46 40 36 24 20 16 9 4 10 2 5 13 15
43 26 340 31 10 351 37 31 350 13 41 359 277 213 252 264 247 272 274 306 289 294 299 301 295 271 261 241 170 312 1 304 46 38 35 45 74 54 304 286 15 60 56 48 102 99 97 107 98 81 73 54 8 2 30 41 12 319 86 76 68 73 80 89 86 76 69 67 65 60 58 52 45 38 39 33 34 25 20 14 8 4 356 358 7 1 356
92 15 70 157 101 293 111 25 358 331 285 273 245 232 235 265 274 268 271 272 253 263 276 277 267 266 301 358 313 236 304 351 72 336 334 59 57 248 226 38 56 20 67 64 70 83 79 61 50 63 72 38 23 26 13 23 29 56 77 101 77 65 60 65 61 56 51 55 54 53 48 43 39 36 36 43 39 29 18 7 11 4 356 4 0 347 345
42 269 292 48 31 332 355 339 280 277 232 238 265 273 272 254 217 277 241 211 225 241 254 249 202 186 128 42 351 328 6 2 78 43 37 91 236 18 38 52 67 60 41 72 73 79 103 114 130 347 13 36 38 30 18 17 24 38 42 48 46 43 37 44 47 45 43 47 46 46 43 37 37 34 37 33 39 37 19 10 360 1 5 3 4 2 353
113 55 57 142 203 174 255 253 25 301 279 275 278 270 264 260 271 322 347 232 231 237 237 249 248 105 101 170 211 339 39 338 47 36 3 60 57 9 11 67 50 75 44 48 96 93 78 57 44 19 350 9 35 29 21 22 26 31 32 33 32 26 26 33 34 31 34 44 44 42 40 30 25 29 30 29 33 24 8 358 3 8 9 4 1 1 358
43 356 83 12 301 229 262 239 221 282 329 339 27 351 346 351 353 349 1 338 321 258 195 201 321 66 6 341 44 48 78 325 57 48 56 47 54 36 36 77 46 84 115 60 70 73 62 47 31 346 358 22 30 22 19 19 26 33 31 30 30 24 24 15 22 22 27 25 30 36 34 27 32 28 24 21 2 341 341 16 18 10 5 3 354 349 350
274 92 139 236 41 346 331 2 3 348 353 357 350 349 348 339 349 329 341 332 305 257 60 38 356 23 29 23 20 36 12 302 64 41 34 53 12 24 39 71 62 59 74 60 44 26 31 31 8 356 8 19 24 16 8 6 19 28 26 27 24 18 16 24 22 19 16 15 7 27 56 48 27 6 344 322 323 346 36 49 27 10 355 348 347 339 332
348 8 4 328 250 309 328 276 245 298 312 310 326 338 340 345 341 318 316 296 332 47 34 338 28 38 58 48 24 244 257 40 51 41 64 46 360 38 45 43 62 54 52 63 52 32 32 21 22 8 7 1 2 353 354 355 16 36 34 26 17 13 15 15 12 3 341 329 318 9 64 78 8 336 301 325 21 27 23 8 354 354 342 332 322 310 300